Simultaneous Nadir Overpasses (SNOs) Predictions

Prediction of SNOs between METOP-B and TERRA Satellite Orbit:

Table of predicted SNOs for the next 14.0 days since TLE Epoch: 1/2/2021
Index Date (METOP-B) Time (METOP-B) Lat,Lon (METOP-B) SZA (METOP-B ) Date (TERRA) Time (TERRA) Lat,Lon (TERRA) SZA (TERRA ) Distance(km) Time Diff (sec)
1 01/04/2021 15:56:21 81.29, -12.55 106.36 01/04/2021 15:56:31 81.29, -12.36 106.38 3.08 10
2 01/04/2021 16:46:59 -81.31, 155.75 73.54 01/04/2021 16:45:57 -81.31, 155.56 73.59 3.29 62
3 01/07/2021 10:40:21 -81.13,-120.00 74.77 01/07/2021 10:41:35 -80.91,-119.36 74.86 27.08 74
4 01/07/2021 11:30:44 81.30, 54.26 106.04 01/07/2021 11:30:45 81.30, 54.15 106.02 1.89 1
5 01/07/2021 12:21:24 -81.30,-138.18 73.95 01/07/2021 12:20:12 -81.29,-138.28 74.00 1.97 72
6 01/10/2021 06:14:27 -81.29, -47.03 74.43 01/10/2021 06:15:32 -81.30, -47.09 74.41 0.91 65
7 01/10/2021 07:05:07 81.30, 120.65 105.61 01/10/2021 07:04:58 81.30, 120.62 105.60 0.61 9
8 01/13/2021 01:48:51 -81.29, 19.38 74.91 01/13/2021 01:49:46 -81.30, 19.36 74.88 0.46 55
9 01/13/2021 02:39:31 81.30,-172.98 105.13 01/13/2021 02:39:12 81.30,-172.96 105.12 0.30 19
10 01/15/2021 21:23:15 -81.29, 85.77 75.44 01/15/2021 21:24:00 -81.29, 85.76 75.42 0.25 45



Historial Predications of SNOs between METOP-B and TERRA
